Regional Weather Roundup
Issued by NWS Kansas City/Pleasant Hill, MO

Home | Current Version | Previous Version | Graphics & Text | Print | Product List | Glossary Off
Versions: 1 2 3 4 5 6 7 8 9 10 11 12 13 14 15 16 17 18 19 20 21 22 23 24 25 26 27 28 29 30 31 32 33 34 35 36 37 38 39 40 41 42 43 44 45 46 47 48 49 50

000
ASUS43 KEAX 210004
RWREAX

WEATHER ROUNDUP FOR EASTERN KANSAS AND NORTHWEST MISSOURI
NATIONAL WEATHER SERVICE KANSAS CITY/PLEASANT HILL MO
600 PM CST SAT DEC 20 2014

KSZ040-057-103>105-MOZ028-029-037-043-210100-
...KANSAS CITY METROPOLITAN AREA...

CITY           SKY/WX    TMP DP  RH WIND       PRES   REMARKS
K.C. INTL      CLOUDY    43  38  82 S9        30.11S
6HR MIN TEMP:  41; 6HR MAX TEMP:  45;

K.C. DOWNTOWN  CLOUDY    45  37  73 S9        30.13R
6HR MIN TEMP:  44; 6HR MAX TEMP:  47;

LEES SUMMIT    CLOUDY    41  35  79 S9        30.14R
6HR MIN TEMP:  40; 6HR MAX TEMP:  43;

OLATHE - IXD   CLEAR     39  35  86 S9        30.13R WCI  33
6HR MIN TEMP:  38; 6HR MAX TEMP:  46;

OLATHE - OJC   CLEAR     38  35  89 S8        30.12R WCI  32
6HR MIN TEMP:  38; 6HR MAX TEMP:  45;

LAWRENCE       CLEAR     40  35  83 S8        30.12R WCI  34

$$

MOZ001>008-011>017-020>025-030>033-038>040-044>046-053-054-210100-
...NORTHERN AND CENTRAL MISSOURI...

CITY           SKY/WX    TMP DP  RH WIND       PRES   REMARKS
ST. JOSEPH     CLOUDY    39  37  92 CALM      30.11S
6HR MIN TEMP:  39; 6HR MAX TEMP:  43;

MOSBY          CLOUDY    41  37  87 SE6       30.13R
WARRENSBURG    CLOUDY    37  34  87 S6        30.17S WCI  33
WHITEMAN AFB   CLOUDY    39  35  83 S8        30.17R WCI  34
6HR MIN TEMP:  38; 6HR MAX TEMP:  40;

CLINTON        CLOUDY    41  36  81 S5        30.18S
SEDALIA        CLOUDY    41  34  76 S8        30.18S
6HR MIN TEMP:  39; 6HR MAX TEMP:  41;

WARSAW         NOT AVBL
MARSHALL       CLOUDY    41  39  93 CALM      30.19R
CHILLICOTHE      N/A     39  36  89 SE8       30.16S WCI  33
6HR MIN TEMP:  37; 6HR MAX TEMP:  39;

MOBERLY        CLOUDY    39  32  75 S5        30.20R
KIRKSVILLE     CLOUDY    37  36  96 S7        30.18R FOG     WCI  32
6HR MIN TEMP:  36; 6HR MAX TEMP:  38;


$$

MOZ041-047>049-056>058-063>065-088>090-097-210100-
...EASTERN AND SOUTHERN MISSOURI...

CITY           SKY/WX    TMP DP  RH WIND       PRES   REMARKS
ST. LOUIS INTL CLOUDY    43  33  68 SE8       30.24R
6HR MIN TEMP:  40; 6HR MAX TEMP:  43;

SPIRIT OF STL  CLOUDY    42  34  73 SE6       30.23R
COLUMBIA       CLOUDY    40  36  86 S6        30.20R
JEFFERSON CITY CLOUDY    42  35  76 CALM      30.21R
MEXICO         CLOUDY    41  41 100 SE5       30.20R
HANNIBAL       CLOUDY    39  34  81 SE5       30.21R
ROLLA          CLOUDY    40  34  79 SW5       30.18R
LEBANON        CLOUDY    39  36  87 S3        30.19S
OSAGE BEACH    CLOUDY    43  34  70 S6        30.20R
SPRINGFIELD    CLOUDY    42  36  79 SW6       30.17S
BRANSON        CLOUDY    41  39  93 CALM      30.19S FOG
NEVADA         CLOUDY    39  36  87 S6        30.18S WCI  35
JOPLIN         CLOUDY    43  35  73 S9        30.18S
WEST PLAINS    CLOUDY    41  36  82 CALM      30.21R

$$

IAZ060-094-KSZ022-034>040-054-083-096-NEZ052-066-093-210100-
...KANSAS...SOUTHEAST NEBRASKA AND IOWA...

CITY           SKY/WX    TMP DP  RH WIND       PRES   REMARKS
TOPEKA         CLEAR     44  37  76 S6        30.11R
6HR MIN TEMP:  44; 6HR MAX TEMP:  51;

MANHATTAN      PTCLDY    39  37  92 S3        30.08R
EMPORIA        CLEAR     41  35  79 S6        30.10R
CHANUTE        CLEAR     38  34  85 S9        30.14S WCI  31
WICHITA        CLOUDY    44  36  73 S13       30.10R
OMAHA          CLOUDY    34  32  92 S9        30.10R FOG     WCI  27
LINCOLN        CLOUDY    36  32  85 SE7       30.08S WCI  30
FALLS CITY     CLOUDY    35  33  92 SE3       30.09S FOG
LAMONI         CLOUDY    35  34  96 SE7       30.12S FOG     WCI  29
DES MOINES     DRIZZLE   36  33  89 SE7       30.14R FOG     WCI  30

$$



USA.gov is the U.S. government's official web portal to all federal, state and local government web resources and services.